This is the latest recevied weather packets stored in our database for station/object KM4KMS. If no packets are shown the sender has not sent any weather packets the latest 10 day(s).
| Time | Temp. | Humidity | Pressure | Rain* | Wind** | Luminosity | Snow |
|---|---|---|---|---|---|---|---|
| 1777654887 | 14.44° C | 62% | 1013.7 hPa | 0 mm | - | 168 W/m² | - |
| 1777654585 | 14.44° C | 66% | 1013.7 hPa | 0 mm | - | 806 W/m² | - |
| 1777654282 | 12.78° C | 66% | 1013.7 hPa | 0 mm | - | 740 W/m² | - |
| 1777653981 | 12.78° C | 66% | 1013.9 hPa | 0 mm | - | 105 W/m² | - |
| 1777653676 | 13.33° C | 65% | 1013.8 hPa | 0 mm | - | 120 W/m² | - |
| 1777653367 | 13.89° C | 63% | 1013.8 hPa | 0 mm | - | 420 W/m² | - |
| 1777653065 | 13.33° C | 69% | 1013.8 hPa | 0 mm | - | 757 W/m² | - |
| 1777652761 | 12.22° C | 71% | 1013.9 hPa | 0 mm | - | 271 W/m² | - |
| 1777652458 | 12.22° C | 69% | 1014 hPa | 0 mm | - | 158 W/m² | - |
| 1777652155 | 12.78° C | 71% | 1013.8 hPa | 0 mm | - | 130 W/m² | - |
| 1777651851 | 12.78° C | 72% | 1013.6 hPa | 0 mm | - | 209 W/m² | - |
| 1777651548 | 12.22° C | 71% | 1013.7 hPa | 0 mm | - | 246 W/m² | - |
| 1777651245 | 12.78° C | 71% | 1013.7 hPa | 0 mm | - | 358 W/m² | - |
| 1777650941 | 12.78° C | 71% | 1013.5 hPa | 0 mm | - | 393 W/m² | - |
| 1777650639 | 12.22° C | 73% | 1013.7 hPa | 0 mm | - | 314 W/m² | - |
| 1777650336 | 11.67° C | 75% | 1013.6 hPa | 0 mm | - | 296 W/m² | - |
| 1777650033 | 11.67° C | 75% | 1013.4 hPa | 0 mm | - | 216 W/m² | - |
| 1777649731 | 11.67° C | 75% | 1013.7 hPa | 0 mm | - | 190 W/m² | - |
| 1777649427 | 11.11° C | 75% | 1013.5 hPa | 0 mm | - | 176 W/m² | - |
| 1777649124 | 11.67° C | 75% | 1013.5 hPa | 0 mm | - | 151 W/m² | - |
| 1777648822 | 11.11° C | 75% | 1013.6 hPa | 0 mm | - | 134 W/m² | - |
| 1777648518 | 11.11° C | 76% | 1013.4 hPa | 0 mm | - | 81 W/m² | - |
| 1777648215 | 11.11° C | 76% | 1013.4 hPa | 0 mm | - | 59 W/m² | - |
| 1777647910 | 11.67° C | 74% | 1013.1 hPa | 0 mm | - | 64 W/m² | - |
| 1777647607 | 11.67° C | 75% | 1013.3 hPa | 0 mm | - | 93 W/m² | - |
* Rain latest hour (hover to see other rain measurements)
** Current wind speed in m/s (hover to see current wind gust speed)